CW3001 Weather Reports


time (UTC)temp
F
wind
direction
speed
knots
gust
knots
rain 1hr
in
rain 24hr
in
rain mn
in
humidity
%
barometer
mb
20260902230621 65 210 4.3 6.1 0.00 0.01 0.00 71 1019.4
20260902230505 65 238 4.3 6.1 0.00 0.01 0.00 70 1019.3
20260902225615 65 212 3.5 6.1 0.00 0.01 0.00 70 1019.4
20260902225114 65 199 3.5 6.1 0.00 0.01 0.00 71 1019.3
20260902224618 65 199 3.5 8.7 0.00 0.01 0.00 70 1019.4
20260902224458 65 199 4.3 8.7 0.00 0.01 0.00 71 1019.5
20260902223614 65 224 2.6 5.2 0.00 0.01 0.00 71 1019.6
20260902223114 65 224 2.6 5.2 0.00 0.01 0.00 71 1019.5
20260902222612 65 259 2.6 5.2 0.00 0.01 0.00 72 1019.6
20260902222115 65 212 2.6 5.2 0.00 0.01 0.00 72 1019.6
20260902222007 65 243 1.7 3.5 0.00 0.01 0.00 72 1019.6
20260902221410 65 182 1.7 4.3 0.00 0.01 0.00 73 1019.5
20260902221256 65 186 1.7 4.3 0.00 0.01 0.00 72 1019.6
20260902220123 65 196 1.7 4.3 0.00 0.01 0.00 73 1019.5
20260902215613 65 197 0.9 3.5 0.00 0.01 0.01 73 1019.4
20260902215125 65 212 0.9 3.5 0.00 0.01 0.01 74 1019.5
20260902214613 65 212 1.7 4.3 0.00 0.01 0.01 74 1019.5
20260902214346 65 202 2.6 4.3 0.00 0.01 0.01 74 1019.6
20260902214238 65 212 2.6 4.3 0.00 0.01 0.01 74 1019.5
20260902213113 65 206 1.7 4.3 0.00 0.01 0.01 74 1019.5
20260902212611 65 207 2.6 4.3 0.00 0.01 0.01 74 1019.5
20260902212113 65 195 1.7 3.5 0.00 0.01 0.01 74 1019.4
20260902211613 65 196 0.9 5.2 0.00 0.01 0.01 73 1019.5
20260902211113 65 196 2.6 5.2 0.00 0.01 0.01 73 1019.7
20260902210611 65 217 2.6 5.2 0.00 0.01 0.01 74 1019.7
20260902210113 65 182 2.6 4.3 0.00 0.01 0.01 74 1019.8
20260902205611 65 196 1.7 4.3 0.00 0.01 0.01 74 1019.7
20260902205456 65 203 2.6 4.3 0.00 0.01 0.01 74 1019.7
20260902204611 65 183 2.6 4.3 0.00 0.01 0.01 74 1019.6
20260902204112 65 193 2.6 5.2 0.00 0.01 0.01 74 1019.7
20260902203611 65 182 2.6 5.2 0.00 0.01 0.01 74 1019.7
20260902203112 64 210 3.5 5.2 0.00 0.01 0.01 74 1019.8
20260902203005 64 199 2.6 5.2 0.00 0.01 0.01 74 1019.8
20260902202110 64 192 3.5 5.2 0.00 0.01 0.01 74 1019.8
20260902201956 64 185 3.5 5.2 0.00 0.01 0.01 74 1019.8
20260902201109 65 203 3.5 5.2 0.00 0.01 0.01 74 1019.7
20260902200608 65 195 2.6 5.2 0.00 0.01 0.01 74 1019.8
20260902200451 65 197 2.6 5.2 0.00 0.01 0.01 74 1019.8
20260902195607 65 196 2.6 5.2 0.00 0.01 0.01 73 1019.8
20260902195106 65 193 1.7 4.3 0.00 0.01 0.01 73 1019.9
20260902194606 65 197 1.7 4.3 0.00 0.01 0.01 74 1019.9
20260902194119 65 202 1.7 3.5 0.00 0.01 0.01 73 1020.0
20260902193604 65 203 1.7 3.5 0.00 0.01 0.01 73 1020.0
20260902193449 65 204 1.7 3.5 0.00 0.01 0.01 73 1020.0
20260902192605 65 199 1.7 4.3 0.00 0.01 0.01 72 1020.0
20260902192106 66 197 1.7 4.3 0.00 0.01 0.01 72 1020.0
20260902191605 66 197 1.7 3.5 0.00 0.01 0.01 72 1020.0
20260902191102 66 196 1.7 4.3 0.00 0.01 0.01 72 1020.0
20260902190628 67 182 1.7 3.5 0.00 0.01 0.01 71 1019.9
20260902190619 66 186 0.0 2.6 0.00 0.01 0.01 72 1019.9
20260902190607 66 195 2.6 4.3 0.00 0.01 0.01 72 1019.9
20260902190556 66 183 0.9 2.6 0.00 0.01 0.01 71 1019.9
20260902184603 67 182 1.7 4.3 0.00 0.01 0.01 71 1019.9
20260902184106 67 179 1.7 4.3 0.00 0.01 0.01 70 1019.8
20260902183604 67 182 3.5 4.3 0.00 0.01 0.01 70 1019.8
20260902183103 67 192 1.7 4.3 0.00 0.01 0.01 70 1019.9
20260902182604 67 192 1.7 4.3 0.00 0.01 0.01 70 1019.8
20260902182103 67 199 0.9 3.5 0.00 0.01 0.01 70 1019.9
20260902181605 67 200 1.7 2.6 0.00 0.01 0.01 69 1019.8
20260902181104 68 200 0.0 2.6 0.00 0.01 0.01 69 1019.8
20260902180954 68 202 1.7 2.6 0.00 0.01 0.01 69 1019.8
20260902180117 68 203 1.7 3.5 0.00 0.01 0.01 69 1019.8
20260902175604 68 204 1.7 3.5 0.00 0.01 0.01 69 1019.9
20260902175104 68 203 1.7 3.5 0.00 0.01 0.01 69 1019.9
20260902174604 68 202 1.7 4.3 0.00 0.01 0.01 69 1019.8
20260902174104 68 216 3.5 5.2 0.00 0.01 0.01 68 1019.8
20260902173605 68 210 2.6 5.2 0.00 0.01 0.01 69 1019.9
20260902173444 68 221 2.6 4.3 0.00 0.01 0.01 68 1019.9
20260902172604 68 209 3.5 7.8 0.00 0.01 0.01 68 1019.9
20260902172105 68 210 3.5 7.8 0.00 0.01 0.01 68 1019.8
20260902171605 68 210 3.5 6.1 0.00 0.01 0.01 68 1019.9
20260902171102 68 212 4.3 7.8 0.00 0.01 0.01 67 1019.9
20260902170604 68 230 5.2 7.8 0.00 0.01 0.01 67 1019.9
20260902170456 69 219 5.2 9.6 0.00 0.01 0.01 67 1019.9
20260902165603 69 257 5.2 10.4 0.00 0.01 0.01 66 1020.0
20260902165451 69 179 4.3 11.3 0.00 0.01 0.01 66 1019.9
20260902164605 69 224 5.2 11.3 0.00 0.01 0.01 66 1019.9
20260902164104 69 227 7.8 10.4 0.00 0.01 0.01 66 1020.0
20260902163954 69 223 7.0 8.7 0.00 0.01 0.01 67 1020.0
20260902163432 0 199 7.0 8.7 0.00 0.01 0.01 1020.0
20260902162605 69 196 7.0 11.3 0.00 0.01 0.01 67 1020.1
20260902162104 69 227 6.1 11.3 0.00 0.01 0.01 67 1020.1
20260902161605 69 224 5.2 9.6 0.00 0.01 0.01 67 1020.1
20260902161103 69 183 5.2 9.6 0.00 0.01 0.01 67 1020.2
20260902160617 70 216 3.5 7.8 0.00 0.01 0.01 67 1020.3
20260902160108 70 221 4.3 10.4 0.00 0.01 0.01 66 1020.3
20260902155953 70 227 6.1 11.3 0.00 0.01 0.01 66 1020.2
20260902155449 70 213 7.0 11.3 0.00 0.01 0.01 66 1020.3
20260902154604 70 227 6.1 11.3 0.00 0.01 0.01 66 1020.3
20260902154445 70 234 7.0 12.2 0.00 0.01 0.01 65 1020.3
20260902153945 70 234 7.0 12.2 0.00 0.01 0.01 65 1020.2
20260902153104 70 193 5.2 10.4 0.00 0.01 0.01 65 1020.3
20260902152605 70 221 3.5 6.1 0.00 0.01 0.01 66 1020.2
20260902152348 70 183 4.3 6.1 0.00 0.01 0.01 66 1020.4
20260902152235 70 186 3.5 6.1 0.00 0.01 0.01 67 1020.2
20260902151104 70 197 3.5 6.1 0.00 0.01 0.01 65 1020.4
20260902150603 70 238 4.3 7.8 0.00 0.01 0.01 67 1020.5
20260902150113 69 234 5.2 7.8 0.00 0.01 0.01 68 1020.5
20260902145605 69 251 5.2 7.8 0.00 0.01 0.01 67 1020.6
20260902145105 69 244 4.3 9.6 0.00 0.01 0.01 68 1020.6
20260902144603 69 257 5.2 9.6 0.00 0.01 0.01 67 1020.6
20260902144104 69 206 5.2 9.6 0.00 0.01 0.01 67 1020.6
20260902144004 69 252 3.5 8.7 0.00 0.01 0.01 66 1020.6
20260902143103 69 283 4.3 8.7 0.00 0.01 0.01 65 1020.6
20260902142605 69 279 4.3 6.1 0.00 0.01 0.01 64 1020.6
20260902142103 70 248 3.5 10.4 0.00 0.01 0.01 64 1020.7
20260902141615 70 237 4.3 10.4 0.00 0.01 0.01 64 1020.6
20260902141102 70 251 5.2 8.7 0.00 0.01 0.01 63 1020.6
20260902140602 70 235 3.5 10.4 0.00 0.01 0.01 63 1020.5
20260902140115 70 288 3.5 10.4 0.00 0.01 0.01 62 1020.6
20260902135603 70 252 4.3 9.6 0.00 0.01 0.01 63 1020.7
20260902135103 70 252 3.5 9.6 0.00 0.01 0.01 62 1020.6
20260902134602 71 235 6.1 10.4 0.00 0.01 0.01 61 1020.6
20260902134103 71 237 6.1 11.3 0.00 0.01 0.01 62 1020.6
20260902133603 71 221 7.0 11.3 0.00 0.01 0.01 60 1020.6
20260902133343 71 227 5.2 13.9 0.00 0.01 0.01 58 1020.6
20260902133230 71 203 7.0 10.4 0.00 0.01 0.01 59 1020.6
20260902132101 72 220 7.8 13.9 0.00 0.01 0.01 56 1020.6
20260902131946 73 261 6.1 12.2 0.00 0.01 0.01 57 1020.7
20260902131101 74 231 7.0 12.2 0.00 0.01 0.01 58 1020.5
20260902130601 73 213 7.0 12.2 0.00 0.01 0.01 55 1020.5
20260902130113 72 244 6.1 13.0 0.00 0.01 0.01 60 1020.5
20260902125603 72 241 7.8 13.0 0.00 0.01 0.01 57 1020.4
20260902125100 72 209 6.1 13.0 0.00 0.01 0.01 60 1020.4
20260902124601 72 234 5.2 13.0 0.00 0.01 0.01 59 1020.5
20260902124059 73 250 6.1 13.0 0.00 0.01 0.01 57 1020.4
20260902123601 74 286 7.0 13.0 0.00 0.01 0.01 55 1020.3
20260902123100 73 252 6.1 13.0 0.00 0.01 0.01 55 1020.5
20260902122600 73 209 8.7 13.9 0.00 0.01 0.01 59 1020.6
20260902122100 73 203 6.1 13.9 0.00 0.01 0.01 60 1020.6
20260902121949 73 228 8.7 13.0 0.00 0.01 0.01 61 1020.5
20260902121103 73 206 4.3 12.2 0.00 0.01 0.01 62 1020.4
20260902120602 71 180 7.8 12.2 0.00 0.01 0.01 65 1020.6
20260902120338 69 302 3.5 10.4 0.00 0.01 0.01 66 1020.7
20260902120229 70 250 5.2 10.4 0.00 0.01 0.01 66 1020.5
20260902115100 69 276 7.0 9.6 0.00 0.01 0.01 65 1020.8
20260902114941 70 305 4.3 11.3 0.00 0.01 0.01 65 1020.7
20260902114059 70 282 5.2 11.3 0.00 0.01 0.01 66 1020.8
20260902113558 70 199 3.5 8.7 0.00 0.01 0.01 66 1020.8
20260902113101 70 271 5.2 9.6 0.00 0.01 0.01 64 1020.8
20260902112558 70 250 7.0 10.4 0.00 0.01 0.01 62 1020.8
20260902112058 71 204 7.0 11.3 0.00 0.01 0.01 62 1020.8
20260902111837 73 207 5.2 11.3 0.00 0.01 0.01 61 1020.8
20260902111726 72 223 5.2 11.3 0.00 0.01 0.01 62 1020.8
20260902110944 72 244 5.2 11.3 0.00 0.01 0.01 64 1020.9
20260902110500 71 203 5.2 11.3 0.00 0.01 0.01 64 1020.8
20260902105557 71 206 4.3 7.8 0.00 0.01 0.01 66 1020.9
20260902105058 71 172 3.5 9.6 0.00 0.01 0.01 65 1020.9
20260902104557 70 243 4.3 9.6 0.00 0.01 0.01 67 1020.9
20260902104057 70 248 4.3 9.6 0.00 0.01 0.01 66 1020.8
20260902103830 70 290 5.2 9.6 0.00 0.01 0.01 67 1021.0
20260902103726 70 261 5.2 9.6 0.00 0.01 0.01 66 1021.0
20260902102558 71 279 6.1 10.4 0.00 0.01 0.01 66 1020.9
20260902102056 72 241 7.8 10.4 0.00 0.01 0.01 64 1021.0
20260902101556 72 203 3.5 9.6 0.00 0.01 0.01 64 1020.9
20260902101057 72 262 6.1 9.6 0.00 0.01 0.01 68 1020.8
20260902100557 71 265 4.3 8.7 0.00 0.01 0.01 69 1020.9
20260902100110 71 244 5.2 9.6 0.00 0.01 0.01 71 1020.9
20260902095932 70 302 4.3 9.6 0.00 0.01 0.01 71 1020.9
20260902095058 70 257 5.2 10.4 0.00 0.01 0.01 73 1021.0
20260902094556 69 258 5.2 10.4 0.00 0.01 0.01 73 1020.9
20260902094057 69 262 4.3 8.7 0.00 0.01 0.01 72 1021.1
20260902093555 68 283 5.2 9.6 0.00 0.01 0.01 74 1020.9
20260902093057 67 234 6.1 11.3 0.00 0.01 0.01 74 1020.8
20260902092556 68 240 7.8 11.3 0.00 0.01 0.01 73 1021.2
20260902092432 69 250 6.1 9.6 0.00 0.01 0.01 72 1021.2
20260902091606 68 272 4.3 10.4 0.00 0.01 0.01 75 1021.0
20260902091054 68 302 5.2 10.4 0.00 0.01 0.01 75 1021.0
20260902090554 67 217 6.1 10.4 0.00 0.01 0.01 76 1020.9
20260902090107 67 292 4.3 9.6 0.00 0.01 0.01 76 1020.9
20260902085931 67 261 4.3 9.6 0.00 0.01 0.01 77 1020.8
20260902085054 66 233 7.0 8.7 0.00 0.01 0.01 77 1020.8
20260902084555 65 202 5.2 8.7 0.00 0.01 0.01 79 1020.9
20260902084438 65 257 4.3 8.7 0.00 0.01 0.01 78 1020.8
20260902083555 65 214 5.2 9.6 0.00 0.01 0.01 80 1020.7
20260902083054 64 238 5.2 9.6 0.00 0.01 0.01 79 1020.7
20260902082553 64 244 4.3 9.6 0.00 0.01 0.01 79 1020.6
20260902082052 64 227 6.1 11.3 0.00 0.01 0.01 79 1020.6
20260902081554 64 233 6.1 11.3 0.00 0.01 0.01 80 1020.6
20260902081436 63 193 5.2 8.7 0.00 0.01 0.01 80 1020.6
20260902080944 63 224 4.3 8.7 0.00 0.01 0.01 80 1020.6
20260902080105 63 212 5.2 8.7 0.00 0.01 0.01 80 1020.6
20260902075554 63 214 3.5 8.7 0.00 0.01 0.01 80 1020.5
20260902075435 63 214 5.2 8.7 0.00 0.01 0.01 80 1020.4
20260902074554 63 244 5.2 10.4 0.00 0.01 0.01 80 1020.3
20260902074420 63 237 6.1 10.4 0.00 0.01 0.01 81 1020.3
20260902073552 62 227 4.3 6.1 0.00 0.01 0.01 81 1020.3
20260902073053 62 197 3.5 8.7 0.00 0.01 0.01 81 1020.2
20260902072552 62 224 5.2 8.7 0.00 0.02 0.01 81 1020.2
20260902072439 62 210 5.2 8.7 0.00 0.02 0.01 82 1020.2
20260902071553 62 221 5.2 8.7 0.00 0.02 0.01 82 1020.3
20260902071051 61 220 3.5 8.7 0.00 0.02 0.01 82 1020.3
20260902070551 61 210 4.3 10.4 0.00 0.02 0.01 82 1020.3
20260902070105 61 243 6.1 10.4 0.00 0.02 0.01 83 1020.3
20260902065552 60 213 5.2 7.8 0.01 0.01 0.01 84 1020.2
20260902065052 60 220 3.5 7.8 0.01 0.01 0.01 85 1020.1
20260902064938 59 199 4.3 8.7 0.01 0.01 0.01 85 1020.2
20260902064053 59 202 5.2 8.7 0.01 0.01 0.01 86 1020.1
20260902063552 59 224 5.2 6.1 0.01 0.01 0.01 86 1020.2
20260902063054 59 200 5.2 6.1 0.01 0.01 0.01 88 1020.2
20260902062554 58 213 2.6 5.2 0.01 0.01 0.01 88 1020.2
20260902062051 58 219 3.5 5.2 0.01 0.01 0.01 89 1020.2
20260902061552 57 196 3.5 4.3 0.01 0.01 0.01 89 1020.1
20260902061426 0 189 1.7 4.3 0.01 0.01 0.01 1020.2
20260902060550 56 227 2.6 4.3 0.01 0.01 0.01 89 1020.2
20260902060454 56 199 2.6 4.3 0.01 0.01 0.00 89 1020.1
20260902055549 56 202 2.6 3.5 0.00 0.01 0.00 90 1020.1
20260902055049 56 214 1.7 3.5 0.00 0.01 0.00 90 1020.1
20260902054933 55 214 2.6 3.5 0.00 0.01 0.00 90 1020.1
20260902054049 55 202 2.6 4.3 0.00 0.01 0.00 90 1020.0
20260902053550 55 199 2.6 4.3 0.00 0.01 0.00 90 1019.8
20260902053050 55 196 2.6 4.3 0.00 0.01 0.00 90 1019.8
20260902052937 55 214 2.6 4.3 0.00 0.01 0.00 90 1019.9
20260902052048 55 212 2.6 3.5 0.00 0.01 0.00 90 1019.9
20260902051549 55 210 1.7 3.5 0.00 0.01 0.00 90 1019.8
20260902051050 54 219 1.7 2.6 0.00 0.01 0.00 90 1019.9
20260902050547 54 223 1.7 3.5 0.00 0.01 0.00 90 1019.8
20260902050456 54 223 1.7 3.5 0.00 0.01 0.00 90 1019.7
20260902045547 54 261 0.0 3.5 0.00 0.01 0.00 90 1019.7
20260902045049 54 269 0.0 0.0 0.00 0.01 0.00 89 1019.7
20260902044548 54 269 0.0 0.0 0.00 0.01 0.00 89 1019.8
20260902044050 54 269 0.0 0.0 0.00 0.01 0.00 89 1019.8
20260902043927 54 269 0.0 0.0 0.00 0.01 0.00 89 1019.8
20260902043047 54 269 0.0 0.0 0.00 0.01 0.00 89 1019.7
20260902042548 54 271 0.0 0.0 0.00 0.01 0.00 89 1019.7
20260902042428 54 271 0.0 0.0 0.00 0.01 0.00 89 1019.7
20260902041927 54 271 0.0 0.0 0.00 0.01 0.00 89 1019.7
20260902041436 54 272 0.0 0.0 0.00 0.01 0.00 89 1019.7
20260902040854 54 271 0.0 0.0 0.00 0.01 0.00 89 1019.7
20260902040731 54 271 0.0 0.0 0.00 0.01 0.00 89 1019.7
20260902035832 55 281 0.0 0.0 0.00 0.01 0.00 89 1019.7
20260902035716 54 272 0.0 0.0 0.00 0.01 0.00 89 1019.7
20260902034548 55 281 0.0 0.0 0.00 0.01 0.00 89 1019.8
20260902034047 55 281 0.0 0.0 0.00 0.01 0.00 88 1019.8
20260902033937 55 281 0.0 0.0 0.00 0.01 0.00 88 1019.8
20260902033047 55 281 0.0 0.0 0.00 0.01 0.00 88 1019.8
20260902032548 55 281 0.0 0.0 0.00 0.01 0.00 88 1019.9
20260902032047 55 281 0.0 0.0 0.00 0.01 0.00 88 1019.8
20260902031547 55 281 0.0 0.0 0.00 0.01 0.00 88 1019.8
20260902031046 55 281 0.0 0.0 0.00 0.01 0.00 88 1019.9
20260902030545 55 281 0.0 0.0 0.00 0.01 0.00 88 1019.9
20260902030058 56 281 0.0 0.0 0.00 0.01 0.00 88 1020.0
20260902025546 56 281 0.0 0.0 0.00 0.01 0.00 88 1019.9
20260902025046 56 281 0.0 0.0 0.00 0.01 0.00 88 1020.0
20260902024544 55 281 0.0 0.9 0.00 0.01 0.00 88 1020.0
20260902024046 55 281 0.0 2.6 0.00 0.01 0.00 88 1019.9
20260902023546 56 281 1.7 2.6 0.00 0.01 0.00 89 1020.0
20260902023046 55 281 1.7 2.6 0.00 0.01 0.00 89 1020.0
20260902022545 55 282 0.9 2.6 0.00 0.01 0.00 89 1020.1
20260902022044 55 282 0.9 1.7 0.00 0.01 0.00 89 1020.0
20260902021545 55 282 0.9 1.7 0.00 0.01 0.00 88 1020.1
20260902021045 55 282 0.0 1.7 0.00 0.01 0.00 88 1020.1
20260902020545 55 282 0.0 1.7 0.00 0.01 0.00 88 1020.2
20260902020058 55 282 0.0 0.9 0.00 0.01 0.00 88 1020.2
20260902015546 55 282 0.0 0.0 0.00 0.01 0.00 88 1020.2
20260902015044 55 282 0.0 1.7 0.00 0.01 0.00 88 1020.2
20260902014934 56 282 0.0 1.7 0.00 0.01 0.00 88 1020.1
20260902014429 56 282 0.9 2.6 0.00 0.01 0.00 88 1020.2
20260902013546 56 282 1.7 2.6 0.00 0.01 0.00 89 1020.2
20260902013427 56 282 1.7 2.6 0.00 0.01 0.00 88 1020.3
20260902012544 56 282 0.0 0.0 0.00 0.01 0.00 88 1020.2
20260902012043 56 282 0.0 0.0 0.00 0.01 0.00 88 1020.3
20260902011557 56 282 0.0 0.0 0.00 0.01 0.00 88 1020.3
20260902011045 56 282 0.0 1.7 0.00 0.01 0.00 89 1020.2
20260902010556 56 282 0.0 2.6 0.00 0.01 0.00 89 1020.3
20260902010056 56 282 1.7 2.6 0.00 0.01 0.00 89 1020.4
20260902005544 56 282 1.7 3.5 0.00 0.01 0.00 89 1020.3
20260902005325 55 283 0.9 3.5 0.00 0.01 0.00 89 1020.3
20260902005208 55 282 2.6 3.5 0.00 0.01 0.00 89 1020.4
20260902004042 55 295 1.7 3.5 0.00 0.01 0.00 88 1020.4
20260902003934 55 310 1.7 2.6 0.00 0.01 0.00 88 1020.5
20260902003426 55 327 0.0 0.0 0.00 0.01 0.00 87 1020.3
20260902002925 55 327 0.0 0.0 0.00 0.01 0.00 88 1020.3
20260902002041 55 327 0.0 0.0 0.00 0.01 0.00 88 1020.2
20260902001542 55 327 0.0 0.0 0.00 0.01 0.00 88 1020.3
20260902001040 55 327 0.0 0.0 0.00 0.01 0.00 87 1020.3
20260902000553 55 327 0.0 0.0 0.00 0.01 0.00 87 1020.4
20260902000055 55 327 0.0 0.0 0.00 0.01 0.00 87 1020.4
20260901235542 55 327 0.0 0.0 0.00 0.01 0.00 87 1020.4
20260901235040 55 327 0.0 0.0 0.00 0.01 0.00 87 1020.3
20260901234541 55 327 0.0 0.0 0.00 0.01 0.00 87 1020.3
20260901234423 55 327 0.0 0.0 0.00 0.01 0.00 87 1020.5
20260901233553 56 327 0.0 0.0 0.00 0.01 0.00 87 1020.3
20260901233039 56 327 0.0 0.0 0.00 0.01 0.00 87 1020.3
20260901232540 56 327 0.0 0.0 0.00 0.01 0.00 87 1020.4
20260901232429 56 327 0.0 0.0 0.00 0.01 0.00 87 1020.5
20260901231540 56 327 0.0 0.0 0.00 0.01 0.00 86 1020.6
20260901231039 56 327 0.0 0.0 0.00 0.01 0.00 86 1020.6